Total_Precipitation_Accumulation
0.75 0.52 0.58 0.55 0.50 0.47 0.46 0.53 0.63 0.60 0.60 0.64 0.66 0.70 0.66 0.65 0.65 0.68 0.82 0.98 1.14 1.32 1.47 1.62 1.87 2.09 2.21 2.44 2.30 2.03 2.03 2.21 2.39 2.78 3.38 3.73 3.89 3.94 3.98 4.01 4.06 3.66 3.64
0.56 0.46 0.53 0.51 0.53 0.52 0.54 0.60 0.56 0.52 0.56 0.57 0.58 0.69 0.70 0.69 0.68 0.73 0.79 1.00 1.23 1.46 1.55 1.66 1.80 2.11 2.18 2.34 2.37 2.13 2.03 2.17 2.38 2.93 3.70 4.30 4.49 4.45 4.35 4.38 4.15 3.85 3.82
0.46 0.45 0.50 0.56 0.57 0.58 0.57 0.61 0.56 0.52 0.57 0.62 0.61 0.69 0.78 0.74 0.73 0.74 0.82 1.03 1.34 1.53 1.60 1.71 1.89 2.06 2.18 2.22 2.26 2.19 2.24 2.33 2.55 3.17 4.08 4.31 4.53 4.82 4.76 4.58 4.13 3.84 3.56
0.41 0.46 0.47 0.62 0.66 0.64 0.60 0.61 0.62 0.60 0.61 0.67 0.73 0.74 0.83 0.80 0.79 0.86 0.96 1.09 1.39 1.58 1.79 1.83 1.86 2.02 2.14 2.05 1.91 2.15 2.46 2.52 2.83 3.40 3.96 3.99 3.94 4.77 4.72 4.41 4.02 3.79 3.44
0.48 0.51 0.54 0.62 0.69 0.76 0.76 0.75 0.75 0.72 0.73 0.76 0.83 0.89 1.00 0.97 0.92 0.97 1.07 1.15 1.40 1.55 1.81 2.06 2.06 2.03 1.98 1.88 1.89 2.19 2.80 2.82 3.16 3.42 3.64 4.07 4.29 4.72 4.55 4.44 3.98 3.73 3.57
0.60 0.63 0.58 0.77 0.89 0.94 0.93 0.88 0.87 0.85 0.85 0.92 0.96 1.01 1.09 1.08 1.07 1.15 1.25 1.32 1.58 1.69 1.76 2.02 2.28 2.30 2.15 2.27 2.20 2.31 2.86 3.15 3.21 3.30 3.70 4.33 4.55 4.72 4.41 4.47 4.26 3.97 3.68
0.88 0.87 0.73 0.80 0.84 0.92 0.94 0.97 0.94 0.93 0.92 1.01 1.07 1.08 1.10 1.06 1.06 1.24 1.51 1.52 1.64 1.81 1.84 1.92 2.11 2.26 2.28 2.58 2.62 2.60 3.04 3.29 3.14 3.32 3.83 4.24 4.41 4.50 4.38 4.54 4.51 4.11 3.73
1.05 1.00 0.79 0.82 0.83 0.97 1.02 1.06 1.03 1.02 1.03 1.10 1.17 1.14 1.10 1.07 1.12 1.29 1.52 1.67 1.73 1.77 1.88 2.02 2.05 2.24 2.54 2.74 2.86 2.88 2.99 3.04 2.86 3.18 3.64 3.89 3.83 4.02 4.32 4.50 4.47 4.07 3.69
1.10 1.14 0.99 1.00 1.00 1.07 1.15 1.17 1.27 1.21 1.21 1.24 1.23 1.33 1.25 1.22 1.35 1.49 1.58 1.70 1.73 1.75 1.74 1.86 2.06 2.04 2.35 2.57 2.70 2.76 2.80 3.05 2.89 2.94 3.22 3.80 3.61 3.93 4.27 4.25 4.29 4.14 3.73
1.81 1.86 1.63 1.50 1.45 1.38 1.33 1.27 1.38 1.36 1.39 1.48 1.41 1.42 1.44 1.45 1.52 1.65 1.66 1.78 1.73 1.67 1.71 1.76 1.94 2.03 2.09 2.12 2.11 2.29 2.45 2.67 2.76 2.81 3.27 3.60 3.74 4.36 4.51 4.30 4.28 4.15 3.84
2.60 2.67 2.30 1.86 1.71 1.94 1.78 1.44 1.63 1.54 1.50 1.55 1.54 1.56 1.65 1.93 2.14 2.19 1.94 2.13 2.10 1.96 1.89 1.94 1.96 1.96 1.95 1.99 2.04 2.11 2.08 1.95 2.61 3.12 3.29 3.63 3.77 4.36 4.71 4.50 4.34 4.04 3.74
2.90 2.90 2.59 2.09 2.21 2.47 2.16 2.08 2.05 1.85 1.76 1.69 1.84 1.87 2.07 2.67 2.87 2.49 2.54 2.48 2.51 2.44 2.35 2.34 2.33 2.19 1.98 1.84 2.01 2.06 1.77 1.71 2.27 2.99 3.39 3.83 4.11 4.51 4.62 4.42 4.46 4.34 3.92
3.01 2.73 2.38 2.31 2.38 2.66 2.69 2.59 2.51 2.53 2.51 2.51 2.58 2.60 2.86 3.04 2.89 2.74 3.00 2.83 2.79 2.70 2.64 2.69 2.56 2.25 2.19 2.18 2.12 2.03 1.87 1.95 2.33 2.82 3.41 3.86 4.10 4.49 4.76 4.46 4.37 4.54 4.19
2.99 2.89 2.81 2.84 2.73 2.98 3.41 3.42 3.22 3.16 3.17 3.10 3.01 2.87 3.23 3.42 3.34 3.32 3.40 3.31 3.45 3.44 3.41 3.06 2.86 2.62 2.52 2.29 2.08 2.02 2.11 2.20 2.43 3.01 3.67 3.72 3.86 4.19 4.62 4.68 4.59 4.56 4.34
3.32 3.21 3.15 3.24 3.24 3.37 3.87 4.12 3.85 3.73 3.59 3.46 3.39 3.40 3.44 3.43 3.48 3.65 3.60 3.79 3.76 3.68 3.52 3.33 2.92 2.88 2.70 2.55 2.38 2.19 2.29 2.49 2.64 3.04 3.36 3.55 3.59 3.87 4.48 4.98 4.93 4.77 4.64
3.58 3.38 3.29 3.35 3.34 3.45 3.73 4.00 4.08 4.03 4.10 3.99 3.75 3.73 3.73 3.69 3.77 3.83 3.83 3.79 3.65 3.48 3.56 3.53 3.33 3.31 3.08 2.89 2.66 2.59 2.57 2.60 2.76 2.87 3.16 3.58 3.40 3.48 4.09 4.78 5.19 5.09 5.01
3.87 3.84 3.65 3.64 3.79 3.74 3.78 3.87 3.86 3.90 4.20 4.26 4.28 4.28 4.03 3.89 3.92 3.92 3.95 3.84 3.68 3.63 3.75 3.69 3.67 3.64 3.43 3.23 3.13 2.99 2.90 2.77 2.75 2.86 3.19 3.60 3.66 3.62 3.86 4.25 4.78 5.07 5.13
4.30 4.26 3.88 3.55 3.85 3.95 4.00 4.03 4.05 4.09 4.33 4.38 4.35 4.52 4.26 4.28 4.16 4.05 3.87 3.69 3.66 3.65 3.90 3.99 3.92 3.93 3.79 3.64 3.62 3.28 3.16 3.11 2.89 3.01 3.14 3.39 3.93 3.98 4.01 3.93 4.21 4.70 5.07
4.83 4.60 4.08 3.82 3.93 4.11 4.11 4.23 4.44 4.62 4.64 4.57 4.46 4.55 4.40 4.45 4.39 4.31 4.28 4.21 4.07 4.17 4.21 3.89 4.02 4.12 4.14 4.05 3.67 3.47 3.26 3.16 3.04 2.97 3.01 3.15 3.61 3.89 3.96 3.98 4.06 4.21 4.62
4.94 4.83 4.42 4.24 4.50 4.52 4.41 4.43 4.54 4.69 4.75 4.89 4.93 4.88 4.73 4.69 4.77 5.00 5.03 4.88 4.66 4.58 4.58 4.65 4.63 4.33 4.11 4.07 3.68 3.55 3.37 3.10 3.00 2.99 2.90 2.99 3.26 3.25 3.40 3.55 3.83 3.82 4.01
4.21 4.29 4.50 4.55 4.65 4.68 4.71 4.71 4.87 5.04 5.09 5.11 5.27 5.32 5.17 5.09 5.26 5.69 5.72 5.58 5.20 4.89 4.76 4.77 4.79 4.54 4.20 4.02 4.07 3.86 3.44 3.09 2.99 2.90 2.92 3.00 2.94 2.99 3.22 3.45 3.49 3.42 3.46
4.01 4.20 4.46 4.51 4.69 4.98 5.40 5.91 6.19 6.33 6.19 6.04 5.96 5.92 5.75 5.64 5.78 5.91 6.05 5.72 5.33 5.14 4.88 4.66 4.67 4.50 4.15 4.08 4.18 4.30 3.83 3.52 2.97 2.56 2.72 2.85 2.92 3.02 3.10 3.13 3.17 3.21 3.17
3.65 3.98 4.23 4.59 4.99 5.51 6.22 7.05 7.41 7.22 6.77 6.54 6.26 6.18 5.91 5.70 5.72 5.91 5.65 5.40 5.23 4.98 4.74 4.59 4.64 4.58 4.20 4.05 4.18 4.48 4.17 3.76 3.32 2.96 2.71 2.67 2.84 2.99 3.03 3.05 2.95 3.00 3.01
3.27 3.73 4.22 4.78 5.36 6.05 6.72 7.22 7.45 7.36 7.11 6.82 6.34 5.92 5.52 5.20 5.05 5.01 4.90 4.70 4.63 4.46 4.31 4.07 4.14 4.26 4.19 3.93 3.91 3.75 3.69 3.60 3.56 3.26 2.98 2.78 2.78 2.90 2.94 2.83 2.81 2.94 3.01
3.19 3.67 4.21 4.74 5.45 5.98 6.53 6.95 7.24 7.23 7.15 6.79 6.05 5.39 4.96 4.58 4.33 4.05 3.89 3.86 3.86 3.82 3.63 3.44 3.49 3.54 3.50 3.49 3.51 3.37 3.38 3.37 3.27 3.15 3.03 2.98 2.98 2.87 2.83 2.79 2.78 2.82 2.94
3.18 3.70 4.10 4.50 5.23 5.87 6.37 6.73 7.02 7.01 6.86 6.25 5.52 4.92 4.51 4.19 3.92 3.66 3.51 3.41 3.39 3.31 3.15 3.02 3.03 3.03 3.04 3.07 3.16 3.17 3.14 3.09 3.04 3.11 2.89 2.80 2.81 2.68 2.69 2.68 2.65 2.71 2.82